Lid_Strength_Index
-1 -0 2 4 9 10 12 10 7 8 8 6 5 6 7 7 8 12 2 0 0 0 -0 -1 -1 -1 -1 -1 -1 -1 -1 -1 -1 -1 -2 -2 -2 -2 -2 -2 -2 -1 -1 -1 -1 -1 -1 -1 -1
1 2 2 5 11 14 12 8 9 7 6 5 5 5 6 8 4 3 3 0 -0 -0 0 -0 -2 -1 -1 -1 -2 -2 -2 -2 -1 -2 -2 -2 -2 -2 -1 -2 -1 -1 -1 -1 -1 -1 -1 -1 -1
1 1 5 9 13 14 12 8 7 6 5 5 6 4 5 6 3 3 1 0 -0 0 -0 -0 -1 -2 -2 -1 -1 -2 -2 -1 -2 -2 -2 -2 -2 -2 -1 -1 -1 -1 -1 -1 -1 -1 -2 -2 -2
3 4 5 11 13 10 9 7 6 6 5 5 5 7 4 2 3 2 0 0 1 0 -0 -1 -1 -2 -2 -1 -2 -2 -2 -2 -2 -2 -2 -2 -2 -2 -2 -2 -2 -2 -2 -1 -2 -2 -3 -3 -3
3 5 10 13 12 8 7 7 6 7 6 6 5 7 6 3 1 1 1 0 1 0 -0 -1 -1 -2 -2 -2 -2 -2 -2 -2 -2 -2 -2 -2 -2 -2 -2 -2 -2 -3 -3 -3 -3 -3 -3 -3 -4
9 6 11 13 11 8 7 6 5 6 6 5 6 6 6 2 2 1 1 1 0 0 -0 -0 -1 -1 -2 -2 -2 -2 -2 -2 -2 -2 -2 -2 -2 -2 -2 -2 -3 -4 -4 -4 -3 -3 -3 -4 -3
9 8 11 11 10 9 7 6 6 6 6 6 4 7 5 3 2 1 1 0 0 0 0 0 -0 -1 -2 -2 -2 -2 -2 -2 -2 -2 -2 -2 -3 -3 -2 -2 -3 -4 -4 -4 -3 -3 -3 -3 -4
7 6 9 11 11 10 7 6 5 6 6 4 3 8 7 3 1 2 2 1 1 0 -0 0 0 -0 -0 -0 -2 -2 -2 -2 -2 -2 -2 -2 -3 -3 -3 -3 -3 -4 -4 -4 -4 -3 -3 -3 -4
5 9 10 9 9 8 6 8 5 4 5 4 4 4 3 2 1 2 3 2 1 1 1 0 0 0 -0 -0 -1 -1 -1 -1 -0 -0 -1 -1 -1 -0 -2 -3 -3 -4 -3 -4 -4 -4 -3 -3 -3
8 9 9 7 7 8 6 6 6 6 5 5 5 3 2 2 3 3 3 3 3 2 1 1 0 1 -0 -1 -0 -0 -0 -1 0 -1 -1 -0 -1 -0 -1 -2 -3 -3 -3 -3 -4 -5 -5 -4 -1
7 10 7 6 6 6 6 6 5 7 8 6 6 4 3 3 3 3 3 3 2 3 1 1 1 1 1 -0 -0 -0 1 1 -0 -1 -1 -2 -1 -0 0 1 1 2 -1 2 1 2 2 2 2
10 8 7 7 5 6 6 5 6 6 6 4 4 3 3 3 3 3 3 2 2 2 1 1 0 0 0 0 0 0 2 2 0 -0 -1 -0 0 1 2 2 3 2 2 2 2 3 3 2 2
8 8 7 6 7 7 5 6 6 6 4 4 3 3 4 4 3 3 3 3 2 2 1 2 0 1 0 1 1 1 2 2 0 1 0 0 0 1 1 2 1 2 1 2 2 2 2 2 2
7 8 8 7 8 7 6 6 6 5 4 4 4 4 4 4 3 3 3 3 2 2 2 1 1 1 1 1 1 1 2 1 0 0 -0 -0 0 1 2 1 1 1 1 1 2 1 2 2 2
7 10 7 7 8 7 5 8 7 4 4 5 5 4 5 4 3 3 3 3 2 2 1 2 1 0 2 2 2 1 0 0 0 0 0 0 0 1 1 2 2 1 1 1 1 1 2 2 1
9 8 11 7 6 6 7 10 7 5 6 5 5 5 5 4 3 3 2 2 2 2 2 1 1 2 1 1 1 0 0 0 0 0 1 0 0 0 0 2 1 1 1 1 1 2 2 2 3
9 11 10 8 6 7 8 10 6 5 5 6 6 5 5 5 4 3 2 2 2 2 1 2 1 1 1 1 1 1 1 1 1 2 1 1 1 1 1 2 1 1 2 2 2 2 2 3 3
11 11 10 10 7 8 9 9 7 6 6 6 6 6 5 5 5 3 2 2 2 1 1 1 1 1 1 1 1 1 1 2 2 2 3 0 1 0 2 1 1 2 2 2 2 2 2 2 3
9 9 9 8 7 8 9 9 8 6 7 7 7 6 6 5 4 3 2 2 2 2 2 1 2 1 1 1 2 2 2 2 3 2 2 1 1 0 1 1 2 2 2 2 3 2 3 3 3
8 9 10 9 7 8 9 9 7 6 7 6 6 6 6 5 5 3 4 4 2 2 2 2 1 1 1 1 1 1 2 2 2 2 1 1 1 1 1 1 2 2 3 4 3 3 3 3 3
9 10 10 10 8 8 9 10 9 7 7 5 5 6 5 6 6 5 4 3 2 4 3 1 1 1 1 1 2 2 1 2 2 2 2 1 1 0 1 1 1 3 3 3 3 3 3 4 3
11 8 8 9 10 13 8 15 11 9 8 7 6 6 6 6 5 4 4 3 3 4 3 1 1 1 1 1 2 3 3 3 2 2 1 1 1 0 1 1 2 2 2 3 2 2 3 3 4
8 7 8 8 11 11 10 14 12 9 10 8 7 6 5 5 5 5 4 4 3 2 1 1 1 1 1 1 2 2 3 3 3 2 2 2 1 1 1 1 2 2 3 3 2 2 3 3 4
6 8 8 9 11 14 12 13 12 11 9 9 7 6 6 5 5 4 3 3 3 2 2 1 1 1 1 2 1 2 3 3 3 2 2 2 2 2 1 1 2 2 2 2 2 2 3 3 2
8 11 15 15 16 16 11 12 12 8 7 7 7 6 5 4 4 4 4 4 3 3 2 3 3 2 2 1 1 2 3 3 3 3 3 3 2 2 2 1 1 2 2 1 0 2 1 3 2
9 11 15 19 18 15 10 14 12 7 6 6 6 5 5 5 5 5 4 4 3 2 2 4 2 2 2 1 3 2 2 3 3 3 2 2 2 2 0 1 1 1 0 -0 1 1 1 1 2
10 13 9 13 13 15 14 11 8 7 7 6 6 5 5 5 5 5 4 4 3 3 4 3 3 2 2 2 3 3 3 3 3 2 2 2 1 0 0 0 1 0 0 0 2 2 1 2 2
9 8 14 13 18 18 15 14 13 10 8 7 7 6 6 5 4 4 4 3 3 3 3 2 2 3 3 3 2 2 2 1 2 2 3 2 0 1 2 1 0 0 1 1 1 1 2 3 3
11 12 11 11 12 16 17 16 9 10 8 8 7 5 6 5 5 4 3 3 3 2 2 3 3 3 3 2 2 2 2 2 2 2 1 2 1 1 1 1 2 2 1 1 1 2 2 3 3
8 10 11 15 14 13 14 14 7 7 7 7 7 6 6 5 5 5 3 3 3 3 3 3 3 2 2 2 2 3 3 3 3 2 2 1 3 3 3 3 1 2 2 2 2 2 1 2 2